This is the latest recevied weather packets stored in our database for station/object SQ6IUS-13. If no packets are shown the sender has not sent any weather packets the latest 10 day(s).
| Time | Temp. | Humidity | Pressure | Rain* | Wind** | Luminosity | Snow |
|---|---|---|---|---|---|---|---|
| 1777695188 | 2.22° C | 100% | 1025.9 hPa | - | - | - | - |
| 1777693388 | 1.67° C | 100% | 1026 hPa | - | - | - | - |
| 1777692500 | 1.11° C | 100% | 1025.9 hPa | - | - | - | - |
| 1777692487 | 1.11° C | 100% | 1025.9 hPa | - | - | - | - |
| 1777691588 | 1.67° C | 100% | 1025.9 hPa | - | - | - | - |
| 1777690688 | 1.67° C | 100% | 1025.8 hPa | - | - | - | - |
| 1777689788 | 1.67° C | 100% | 1026 hPa | - | - | - | - |
| 1777688888 | 2.22° C | 100% | 1025.9 hPa | - | - | - | - |
| 1777687987 | 2.22° C | 100% | 1025.9 hPa | - | - | - | - |
| 1777687087 | 2.22° C | 100% | 1025.9 hPa | - | - | - | - |
| 1777686187 | 2.22° C | 100% | 1025.8 hPa | - | - | - | - |
| 1777685287 | 2.78° C | 100% | 1025.9 hPa | - | - | - | - |
| 1777684400 | 2.78° C | 100% | 1025.9 hPa | - | - | - | - |
| 1777684387 | 2.78° C | 100% | 1025.9 hPa | - | - | - | - |
| 1777683500 | 2.78° C | 100% | 1026 hPa | - | - | - | - |
| 1777683487 | 2.78° C | 100% | 1026 hPa | - | - | - | - |
| 1777682587 | 3.33° C | 100% | 1026 hPa | - | - | - | - |
| 1777681687 | 3.89° C | 100% | 1026 hPa | - | - | - | - |
| 1777680800 | 3.33° C | 100% | 1026 hPa | - | - | - | - |
| 1777680787 | 3.33° C | 100% | 1026 hPa | - | - | - | - |
| 1777678987 | 3.89° C | 100% | 1026.1 hPa | - | - | - | - |
| 1777678101 | 4.44° C | 100% | 1026.1 hPa | - | - | - | - |
| 1777678087 | 4.44° C | 100% | 1026.1 hPa | - | - | - | - |
| 1777677186 | 4.44° C | 100% | 1026 hPa | - | - | - | - |
| 1777676300 | 5° C | 100% | 1026.2 hPa | - | - | - | - |
* Rain since midnight (hover to see other rain measurements)
** Current wind speed in m/s (hover to see current wind gust speed)